Regional Weather Roundup
Issued by NWS

Home | Current Version | Previous Version | Graphics & Text | Print | Product List | Glossary On
Versions: 1 2 3 4 5 6 7 8 9 10 11 12 13 14 15 16 17 18 19 20 21 22 23 24 25 26 27 28 29 30 31 32 33 34 35 36 37 38 39 40 41 42 43 44 45 46 47 48 49 50
000
ASUS43 KFSD 201702
RWRSD

WEATHER ROUNDUP FOR SOUTH DAKOTA
NATIONAL WEATHER SERVICE SIOUX FALLS SD
1200 PM CDT MON OCT 20 2014

NOTE: "FAIR" INDICATES FEW OR NO CLOUDS BELOW 12,000 FEET WITH NO
SIGNIFICANT WEATHER AND/OR OBSTRUCTIONS TO VISIBILITY.


SDZ001>005-009-010-012>017-201800-
NORTHWEST AND NORTH CENTRAL SOUTH DAKOTA

CITY           SKY/WX    TMP DP  RH WIND       PRES   REMARKS
FAITH            N/A     64  42  44 S18       30.03F
MOBRIDGE       SUNNY     61  44  53 S9        30.05F
$$

SDZ012>016-024>037-041>051-057-063-072>074-201800-
SOUTHWEST AND SOUTH CENTRAL SOUTH DAKOTA

CITY           SKY/WX    TMP DP  RH WIND       PRES   REMARKS
RAPID CTY ARPT SUNNY     63  44  50 E10       30.02F
PIERRE         SUNNY     63  41  44 SE9       30.08F
CUSTER         SUNNY     64  37  36 W8        30.12F
ELLSWORTH AFB  SUNNY     64  44  49 S10       30.01F
PHILIP         SUNNY     68  40  35 SE13      30.05F
PINE RIDGE     SUNNY     68  44  42 S14       30.07F
SPEARFISH      FAIR      68  45  42 E3        30.03S
WINNER         FAIR      69  37  30 S10       30.10F
$$

SDZ004>011-016>023-039-040-201800-
NORTHEAST SOUTH DAKOTA

CITY           SKY/WX    TMP DP  RH WIND       PRES   REMARKS
ABERDEEN       SUNNY     62  39  42 S3        30.09F
WATERTOWN      SUNNY     61  41  47 NW7       30.08F
SISSETON         N/A     60  41  49 N7        30.07S
$$

SDZ017-020-022-023-036>040-048>070-201800-
SOUTHEAST SOUTH DAKOTA

CITY           SKY/WX    TMP DP  RH WIND       PRES   REMARKS
SIOUX FALLS    MOSUNNY   66  43  43 N6        30.08F
HURON          SUNNY     63  38  39 VRB3      30.10F
CHAMBERLAIN    SUNNY     63  40  42 S5        30.11F
MITCHELL       SUNNY     64  41  42 CALM      30.11F
YANKTON        SUNNY     63  45  51 W7        30.11S
$$

ABBREVIATIONS USED IN REMARKS
   TC - TEMPERATURE IN CELSIUS
  WCI - WIND CHILL INDEX
   HX - HEAT INDEX
  VSB - VISIBILITY



USA.gov is the U.S. government's official web portal to all federal, state and local government web resources and services.